Location: Bidart
(43.4376°N, 1.5913°W)
Time: 23:48:05
(UTC+00:00)

Cosmos 1470 - Pass Details

Date: 19 May 2025
Orbit: 455 x 466 km, 82.5° (Epoch: 18 June)

Event Time Altitude Azimuth Distance (km) Brightness Sun altitude
Rises 23:04:13 0° 0° (N) 2,517 7.4 -25.2°
Reaches altitude 10° 23:06:27 10° 10° (N) 1,636 6.1 -25.3°
Enters shadow 23:08:37 27° 39° (NE) 938 4.3 -25.4°
